Regional Weather Roundup
Issued by NWS Jackson, KY

Home | Current Version | Previous Version | Text Only | Print | Product List | Glossary On
Versions: 1 2 3 4 5 6 7 8 9 10 11 12 13 14 15 16 17 18 19 20 21 22 23 24 25 26 27 28 29 30 31 32 33 34 35 36 37 38 39 40 41 42 43 44 45 46 47 48 49 50
000
ASUS43 KJKL 251810
RWRJKL

EAST KENTUCKY HOURLY WEATHER ROUNDUP
NATIONAL WEATHER SERVICE JACKSON KY
200 PM EDT SUN JUN 25 2017

NOTE: "FAIR" INDICATES FEW OR NO CLOUDS BELOW 12,000 FEET WITH
NO SIGNIFICANT WEATHER AND/OR OBSTRUCTIONS TO VISIBILITY.

* THESE REPORTS ARE NOT UNDER NWS QUALITY CONTROL AND MAY NOT
  REPORT WEATHER SUCH AS PRECIPITATION AND FOG.

KYZ079-080-083-085-087-088-110-112-115-119-120-251900
...EASTERN KENTUCKY...

CITY           SKY/WX    TMP DP  RH WIND       PRES   REMARKS
JACKSON        MOSUNNY   76  50  40 VRB5      30.21F
6HR MIN TEMP:  63; 6HR MAX TEMP:  77;

LONDON         SUNNY     77  43  29 MISG      30.22S
6HR MIN TEMP:  61; 6HR MAX TEMP:  77;

SOMERSET*      SUNNY     75  45  33 N7        30.23F
MONTICELLO*    SUNNY     76  48  37 W9G21     30.24F
6HR MIN TEMP:  62; 6HR MAX TEMP:  77;

WILLIAMSBURG*  CLEAR     75  46  35 NE5       30.22F
MIDDLESBORO*   SUNNY     77  49  37 W5        30.21F
6HR MIN TEMP:  60; 6HR MAX TEMP:  77;

HARLAN APT*    PTCLDY    75  45  33 NW6       30.22F
PIKE CO APT*     N/A     73  49  42 W5        30.21S
BIG SANDY APT* PTCLDY    75  47  36 W8        30.20S
6HR MIN TEMP:  62; 6HR MAX TEMP:  76;

MOREHEAD APT*  PTCLDY    77  48  36 W8        30.20F HAZE
$$

KYZ035-036-041-042-044-050-067-078-099-251900
...CENTRAL KENTUCKY...

CITY           SKY/WX    TMP DP  RH WIND       PRES   REMARKS
MT STERLING*   SUNNY     75  48  38 W13       30.20F
FLEMING/MASON* MOSUNNY   78  50  38 SW13      30.17F
DANVILLE*      SUNNY     77  46  33 NW8       30.22S
LEXINGTON      MOSUNNY   77  45  32 SW10      30.19F
6HR MIN TEMP:  61; 6HR MAX TEMP:  79;

FRANKFORT      MOSUNNY   79  51  37 SW7       30.17F
6HR MIN TEMP:  60; 6HR MAX TEMP:  79;

LOUISVILLE     MOSUNNY   81  49  32 W14       30.17F
6HR MIN TEMP:  63; 6HR MAX TEMP:  82;

LEBANON*         N/A    N/A N/A N/A MISG        N/A
GLASGOW*       SUNNY     78  49  35 SW7       30.22S
BOWLING GREEN  SUNNY     80  49  33 VRB6      30.22F
6HR MIN TEMP:  63; 6HR MAX TEMP:  80;

$$

KYZ091>093-OHZ055-061-077-WVZ005-015-034-035-042-251900
...SOUTHERN OHIO/WEST VIRGINIA...

CITY           SKY/WX    TMP DP  RH WIND       PRES   REMARKS
COVINGTON      MOSUNNY   76  50  40 W13       30.14F
COLUMBUS       PTSUNNY   75  48  38 W21G30    30.08F
DAYTON         MOSUNNY   74  48  39 W18       30.13F
WILMINGTON     MOSUNNY   76  51  41 W22G29    30.12F
HUNTINGTON     MOSUNNY   77  48  35 W13       30.16F
CHARLESTON     MOSUNNY   76  46  34 NW15      30.15F
PINEVILLE*     MOSUNNY   75  49  39 MISG      30.24F
BECKLEY        MOSUNNY   71  47  42 NW13      30.20F
BLUEFIELD      SUNNY     68  46  45 NW10      30.22F
LOGAN CO APT*    N/A     72  46  40 CALM      30.19F
$$

VAZ002-007-008-TNZ017-027-036-066-071-251900
...SOUTHWEST VIRGINIA/EAST TENNESSEE...

CITY           SKY/WX    TMP DP  RH WIND       PRES   REMARKS
WISE*          PTSUNNY   70  46  43 NW6       30.25F
JONESVILLE*      N/A     77  50  38 N3        30.22F
ABINGDON*      MOSUNNY   73  53  50 N7        30.22S
BRISTOL        CLOUDY    75  54  47 W8        30.20S
MORRISTOWN*    PTCLDY    75  52  43 N9        30.20S
SEVIERVILLE*   CLEAR     73  55  53 NW3       30.20F
KNOXVILLE      CLOUDY    73  56  54 N6        30.20F
LAFOLLETTE*    CLEAR     77  52  41 VRB3      30.24F
OAK RIDGE      PTSUNNY   78  54  43 VRB3      30.21F
CROSSVILLE     SUNNY     73  47  39 N10G16    30.26S
NASHVILLE      MOSUNNY   82  49  31 N14       30.23F
$$

...KEY TO REMARKS...
VSB - VISIBILITY IN MILES
WCI - WIND CHILL INDEX
HX  - HEAT INDEX

$$



USA.gov is the U.S. government's official web portal to all federal, state and local government web resources and services.